Погода в Ясном

Россия / Архангельская область     64°02′13″N   44°05′21″E
темп.,
°C
ветер,
м/с
пор.,
м/с
влажн.,
%
обл.,
%
осадки,
мм/ч
давл.,
гПа
погр.,
м
17 апреля, сб
сб1700:000з25945 0.0 1032107
03:00−1зюз269398 0.0 1032119
06:00+2з41479100 0.0 1031468
09:00+6зсз5126343 0.0 1030751
12:00+9зсз6952100 0.0 10291147
15:00+10зсз595665 0.0 10281255
18:00+8зсз510625 0.0 1027989
21:00+5с4981100 0.0 1029695
18 апреля, вс
вс1800:00+1св488015 0.1 1032670
03:00−2св37795 0.1 1034518
06:00−2св366838 0.0 1036584
09:00+1всв354483 0.0 1037846
12:00+3всв333366 0.0 10371247
15:00+4всв23317 0.0 10371408
18:00+3всв23370 0.0 1037565
21:000всв22544 0.0 103821
19 апреля, пн
пн1900:00−1вюв11565 0.0 103815
03:00−1ю11565 0.0 103813
06:000ююз125262 0.0 1038107
09:00+4ююз2239100 0.0 1038640
12:00+6юз233496 0.0 10371277
15:00+7зюз23340 0.0 10361357
18:00+6зюз23450 0.0 1035111
21:00+2юз22615 0.0 103517
20 апреля, вт
вт2000:000юз24695 0.0 103560
03:000юз25685 0.0 1035108
06:00+1юз26635 0.0 1035181
09:00+6юз34451 0.0 1034594
12:00+9юз33360 0.0 10331211
15:00+10юз23311 0.0 10321420
18:00+9ююз24390 0.0 1030189
21:00+4ю22570 0.0 103033
21 апреля, ср
ср2100:00+3ююв22640 0.0 103043
03:00+1ююв22702 0.0 103038
06:00+2ююв2767100 0.0 1029198
09:00+7ююв4846100 0.0 1028662
12:00+11ююв5831100 0.0 10251313
15:00+13юв51130100 0.0 10221514
18:00+11юв61336100 0.0 10191299
21:00+9ююв61342100 0.0 10171174